Weather Roundup
Issued by NWS

Home | Current Version | Previous Version | Graphics & Text | Print | Product List | Glossary Off
Versions: 1 2 3 4 5 6 7 8 9 10 11 12 13 14 15 16 17 18 19 20 21 22 23 24 25 26 27 28 29 30 31 32 33 34 35 36 37 38 39 40 41 42 43 44 45 46 47 48 49 50

000
NZUS93 KARX 240110
HRRWXR

CURRENT HOURLY OBSERVATIONS ACROSS
MUCH OF THE UPPER MISSISSIPPI VALLEY
NATIONAL WEATHER SERVICE LA CROSSE WI
800 PM CDT WED APR 23 2014


...SOUTHEAST MINNESOTA...


CITY           SKY/WX    TMP DP  RH WIND       PRES   REMARKS
ROCHESTER      CLOUDY    44  34  67 SE16      29.91F
ROCHESTER/MAYO CLOUDY    45  32  59 E10G17    29.92F
WINONA         RAIN      43  37  81 SE9       29.98F
AUSTIN         CLOUDY    43  36  75 SE16      29.89F
ALBERT LEA     CLOUDY    45  37  76 SE22G29   29.86F
DODGE CENTER   CLOUDY    46  34  61 SE18      29.90S
PRESTON        CLOUDY    44  37  77 SE9       29.93F
OWATONNA       CLOUDY    45  36  70 SE16G25   29.88F
FARIBAULT      CLOUDY    46  34  61 E6        29.90S
$$

...ELSEWHERE IN MINNESOTA...


CITY           SKY/WX    TMP DP  RH WIND       PRES   REMARKS
MINNEAPOLIS    RAIN      42  39  89 E17G25    29.93F
INTNL FALLS    CLOUDY    50  21  32 SE8       29.94S
DULUTH         CLOUDY    41  23  48 E14       29.99S
RED WING       RAIN      43  39  87 E10G16    29.94F
REDWOOD FALLS  CLOUDY    44  37  76 SE16G26   29.82F
MANKATO        CLOUDY    45  34  65 SE22G30   29.87R
WORTHINGTON    PTCLDY    46  34  61 SE24G30   29.76S
FAIRMONT       CLOUDY    45  36  70 SE22G29   29.83S
$$

...SOUTHWEST WISCONSIN...


CITY           SKY/WX    TMP DP  RH WIND       PRES   REMARKS
LA CROSSE      LGT RAIN  45  36  70 SE8       29.99R
PRAIRIE DU CHI LGT RAIN  46  38  75 E8        29.98F
BOSCOBEL       LGT RAIN  49  34  56 E6        29.99F
LONE ROCK      CLOUDY    50  34  54 E13       29.99F
PLATTEVILLE    CLOUDY    47  37  65 E10       29.99F
FORT MC COY    CLOUDY    43  39  85 E6        30.00F
CAMP DOUGLAS   DRIZZLE   45  39  81 SE13      30.00F
VIROQUA        CLOUDY    43  35  74 E14       29.97S
WIS DELLS      DRIZZLE   45  35  66 E12G17    30.00F
$$

...ELSEWHERE IN WISCONSIN...


CITY           SKY/WX    TMP DP  RH WIND       PRES   REMARKS
MILWAUKEE      CLOUDY    39  19  44 NE7       30.13F WCI  34
MADISON        LGT RAIN  47  36  65 E10       30.05F
GREEN BAY      CLOUDY    43  12  28 E7        30.12F
EAU CLAIRE     LGT RAIN  43  38  82 SE7       29.99S
BLACK RVR FLS  LGT RAIN  43  38  82 E8        29.98F
MEDFORD        CLOUDY    45  26  46 SE8       30.01F
WAUSAU         CLOUDY    47  23  38 SE12      30.03F
WIS RAPIDS     CLOUDY    48  26  42 E10       30.04F
MARSHFIELD     CLOUDY    47  25  42 E10       30.01F
RICE LAKE      RAIN      47  28  48 SE7       30.01R
$$

...NORTHEAST IOWA...


CITY           SKY/WX    TMP DP  RH WIND       PRES   REMARKS
WATERLOO       CLOUDY    45  39  79 SE16      29.90F
DUBUQUE        CLOUDY    45  37  73 SE9       29.99S
DECORAH        MIX PCPN  45  37  76 SE9G17    29.95F
MASON CITY     CLOUDY    44  38  79 SE20G30   29.87F
CHARLES CITY   CLOUDY    43  37  81 SE20      29.91S
OELWEIN        CLOUDY   N/A N/A N/A SE18G25   29.93F
$$

...ELSEWHERE IN IOWA...


CITY           SKY/WX    TMP DP  RH WIND       PRES   REMARKS
DES MOINES     LGT RAIN  50  40  68 SE20G32   29.81F
IOWA CITY      LGT RAIN  47  41  80 SE12      29.96F
FORT DODGE     CLOUDY    46  37  71 SE18G25   29.80S
MARSHALLTOWN   CLOUDY    45  40  82 SE17      29.86F
CEDAR RAPIDS   LGT RAIN  46  42  86 E17       29.91F
$$

...NORTHERN ILLINOIS...


CITY           SKY/WX    TMP DP  RH WIND       PRES   REMARKS
CHICAGO-OHARE  CLOUDY    42  18  37 NE10      30.12R
DUPAGE         CLOUDY    45  24  43 E10       30.09F
CHICAGO-MIDWAY CLOUDY    43  22  43 NE7       30.13R
MOLINE         CLOUDY    49  39  68 SE9       29.99F
ROCKFORD       CLOUDY    50  25  37 E14       30.06F
STERLING       CLOUDY    50  36  57 E15       30.00F
PEORIA         CLOUDY    55  36  48 E15       30.00F
$$

NOTE: "FAIR" INDICATES FEW OR NO CLOUDS BELOW 12,000 FEET WITH NO
SIGNIFICANT WEATHER AND/OR OBSTRUCTIONS TO VISIBILITY. WIND
SPEEDS ARE IN MILES-PER-HOUR.



USA.gov is the U.S. government's official web portal to all federal, state and local government web resources and services.